GFSSE_con_sbcape_198.txt.gz
CAPE
557 1120 2453 2192 2179 2108 1924 2101 2048 2458 2434 2914 2900 2281 1562 1531 1295 1523 1575 1178 1232 1381 1461 1577 1590 1654 1609 1804 2012 1886 2131 2281 2758 2569 2563 2799 2696 2686 2067 2082 2197 2066 2204
744 1597 2462 2177 2218 2256 2403 2302 2465 2496 2375 2529 2612 2076 1454 1109 1230 1422 1166 1204 1323 1465 1743 1578 1624 1667 1638 1654 1727 1897 2051 1969 1928 2054 2050 2341 2570 2459 2296 1817 2146 2005 2305
980 1902 2299 2933 2270 2109 2541 2588 2590 2181 2062 2302 2288 1905 1282 1155 1135 1178 1282 1365 1404 1703 1737 1771 1695 1726 1713 1648 1422 1817 1883 2048 1942 1622 2071 1682 1736 2179 1893 1981 2031 2093 2273
1213 1928 1942 2316 2781 2408 2164 2315 2517 1924 1703 1774 1822 1802 1511 1385 1392 1481 1434 1437 1914 1697 1615 1794 1769 1598 1662 1509 1507 1497 1696 1828 1858 1973 1610 1762 824 1863 1799 1769 2047 2130 2441
1361 1520 1528 1426 2163 2136 2603 2366 2522 2235 2055 1973 1834 1693 1678 1781 1701 1577 1655 1975 2024 1716 1672 1655 1595 1397 1330 1263 1397 1386 1551 1190 1499 610 759 719 1384 1914 2257 2648 3055 3035 2856
1471 1627 2300 856 1271 2168 2402 2379 1973 2180 2308 2099 2010 2087 2030 1946 1707 1561 1818 1986 1606 1705 1812 1523 1420 1495 1355 1106 1386 1303 1329 1250 641 130 370 974 1196 2227 2657 2616 2589 2571 2236
1437 1665 2065 2803 2289 2301 2379 2275 2502 2364 2298 2123 1990 2115 2070 1921 1894 1820 1611 1495 1757 1544 1367 1195 1131 1289 1406 1052 964 1231 1703 1869 202 0 90 777 1492 2306 2284 2360 1956 1724 1673
1267 1369 1494 2050 2099 2076 2156 2004 1996 2177 2043 2147 1943 2089 2114 2008 1507 1378 1671 2084 1777 1547 1377 1448 1385 1164 1236 1135 1199 1283 1384 1695 482 0 42 750 1301 2359 2236 2197 2289 2470 2493
1206 1428 1386 1505 2022 2224 2193 2121 1955 1887 1893 1856 1595 1886 1951 2194 1627 1746 2039 1682 1742 1449 1265 880 1279 1218 1285 1318 1207 1695 2068 1565 164 0 25 776 1747 2134 2224 2347 2462 2386 2224
1187 1304 1274 1301 1044 1557 1659 1919 1827 1858 1334 800 759 1249 1672 2233 1771 1995 1578 1318 1345 987 967 1023 1034 1491 1466 1195 1763 1581 2228 1640 565 198 327 1062 1979 2197 2238 2133 2183 2195 1806
861 822 524 214 283 676 754 1190 1704 1643 926 354 612 1002 1900 1442 1196 1299 994 1106 584 853 1138 909 532 1288 523 658 1445 857 689 426 661 547 964 1528 2039 1753 1387 1681 1490 1455 1452
644 640 474 150 515 435 549 597 708 699 534 645 947 1164 1150 1065 888 900 891 552 1647 1219 179 830 1316 934 312 425 829 213 198 506 722 729 668 1466 1654 1875 1497 1552 1506 1685 1950
315 508 446 226 350 317 554 385 546 242 290 482 700 916 1044 836 512 277 330 571 513 469 344 141 63 74 53 384 236 117 175 316 482 324 759 1314 1508 1560 1443 1435 1532 1609 1663
86 271 355 251 247 236 456 369 373 234 249 269 418 621 481 296 147 234 316 192 177 95 164 97 146 150 62 64 60 204 329 305 480 743 278 1356 1471 1608 1685 1608 1624 1716 1782
64 197 278 249 188 95 413 231 230 211 214 202 266 159 38 39 83 139 227 144 173 126 155 94 102 251 228 184 80 59 261 684 625 870 424 1525 1617 1814 2404 2117 1915 1916 1911
60 164 227 287 119 3 157 174 122 130 149 144 230 162 0 0 65 180 121 142 227 246 373 177 214 251 134 29 222 336 356 326 412 845 821 1296 1849 2016 2359 2291 2175 2009 2019
74 130 201 261 131 0 75 110 65 56 152 218 201 237 34 24 202 103 62 157 219 397 136 174 186 145 173 25 3 193 393 434 275 123 693 1108 1651 2256 2447 2268 2750 2535 2224
49 127 142 373 82 6 22 52 122 48 170 282 184 192 191 137 279 126 210 353 326 147 256 213 167 78 115 69 25 8 14 138 670 495 247 343 1212 1400 1974 2470 2949 2604 2143
19 64 115 115 0 17 16 39 97 45 97 162 117 146 123 435 494 242 213 180 125 119 238 227 149 25 43 37 146 227 108 133 196 163 684 754 492 1226 1514 1621 2411 2709 2373
19 27 90 94 0 4 40 24 22 9 13 31 21 74 131 420 629 275 93 91 115 147 143 52 36 26 2 0 20 175 112 80 34 52 124 237 956 870 1231 1200 1412 1666 2542
52 14 47 85 7 0 24 60 46 64 8 0 0 25 44 357 555 441 245 121 115 59 68 17 3 5 12 0 76 255 90 100 72 516 367 344 728 947 771 994 1019 1343 1927
67 75 84 102 44 48 55 0 0 0 0 1 0 0 23 199 305 538 502 569 280 59 14 35 3 0 2 35 79 52 165 202 152 435 352 72 65 353 783 703 643 647 1311
79 142 101 114 66 67 41 0 0 0 0 1 1 1 15 178 365 291 391 592 375 141 49 35 97 39 30 0 0 103 251 233 0 109 485 522 357 610 866 1265 757 493 862
126 156 129 78 94 46 0 0 0 0 15 14 10 11 50 297 293 510 504 313 716 533 87 27 129 105 1 0 0 0 0 10 197 338 70 257 80 7 414 865 1097 1128 1136
184 237 128 40 120 99 22 5 0 0 0 8 11 10 53 338 43 339 634 424 687 787 536 611 866 200 0 1 0 126 78 230 55 208 433 387 74 115 156 219 325 458 788
173 260 141 115 124 47 33 0 2 0 0 0 0 4 17 67 467 116 483 684 254 581 617 619 832 825 222 767 375 756 529 472 300 181 197 18 2 77 35 61 63 98 575

GFSSE_con_sbcape_201.txt.gz
CAPE
727 1186 2150 2543 2143 2155 2056 1891 2331 2998 3101 2627 2447 1568 1439 1472 1454 1422 1677 1090 1361 1370 1475 1598 1607 1520 1789 1974 2002 1896 2361 2865 2907 2680 2750 3176 2564 2598 2384 2150 2250 1796 2476
947 1289 2219 2411 2356 2343 2085 1678 2066 2724 2965 2656 1906 1974 1512 1443 1465 1694 1334 1240 1374 1581 1739 1722 1505 1530 1559 1562 1641 2038 1904 2244 1927 2155 2490 2266 2483 1728 2069 2111 1806 2270 3015
895 1369 1764 2066 1084 1786 2222 2007 1859 1952 2150 2374 2278 1871 1453 1297 1512 1294 1235 1312 1417 1854 1668 1657 1581 1555 1526 1447 1410 1840 1924 2143 1610 2058 2051 1766 2290 2027 1941 2072 2099 2329 2536
721 963 1532 1947 1580 1952 2461 2460 2280 1721 1755 1817 1862 1985 1517 1254 1251 1321 1405 1384 1704 1641 1677 1776 1506 1478 1539 1501 1606 1652 1705 1907 1751 1681 1799 1236 1420 1827 1870 2004 1940 2059 2382
893 1249 921 1824 1524 2072 2263 2210 2700 2297 1558 1578 1587 1575 1472 1431 1483 1497 1516 2006 1823 1716 1683 1684 1473 1444 1340 1261 1386 1728 1559 1991 1956 1613 1802 1587 1457 1693 1782 2022 2510 2957 2834
787 1430 1125 1769 528 1511 2140 2322 2280 2142 1823 1703 1698 1659 1705 1866 1684 1735 1952 1962 1631 1613 1457 1389 1372 1194 1220 1352 1297 1409 1384 1220 1035 1249 1362 1324 1915 2064 2444 2796 2895 2799 2471
776 1160 984 1207 1595 2196 2327 2270 2184 2191 2007 1990 2018 2040 1996 1903 1824 1743 1873 1477 1491 1227 1247 1047 1229 1395 1212 925 1259 1466 1569 1218 671 1232 1099 1055 2052 2279 2453 2554 2595 2272 2119
926 1652 1083 1270 1767 1864 2017 1734 1767 1262 855 1267 1934 1829 1803 1869 1774 1695 1588 1636 1080 546 779 1291 1128 1377 1301 1224 1179 1354 1792 2105 438 579 1174 1249 1877 2230 2257 2290 1888 1679 1699
1228 1476 1397 1417 1546 1761 1826 1392 1578 946 783 1112 1102 1686 1571 1880 1454 1442 1261 1566 884 867 884 1023 1128 1348 1384 1401 1278 1528 1546 1974 1328 257 619 1179 1956 2321 2189 2275 2565 2610 2391
1119 1220 1374 1380 1744 2355 2168 1503 1003 824 1039 1112 1075 1500 1905 1900 1599 1564 1540 1305 983 1015 745 895 1024 1651 1514 1493 1754 1985 2164 2405 1546 744 446 880 2009 2067 2188 2297 2461 2396 2218
1213 1404 1573 1807 1254 1133 648 1223 1204 827 473 795 705 756 1831 2088 1708 1109 1039 1004 849 1033 1146 573 791 1345 1212 1113 1432 1663 1374 1533 1279 834 724 1464 1975 2300 2196 1998 1645 1555 1472
1204 1166 1359 1204 1231 765 229 1491 155 580 951 661 1099 1253 2354 2132 1872 1073 576 511 1257 1130 630 857 1273 969 305 435 1463 802 1153 1318 1155 1183 1094 1599 1861 1545 1754 1917 1720 1657 1765
510 741 1373 1083 1142 1092 1441 1981 1980 824 1113 908 1079 1474 2205 2263 1603 956 891 990 1334 919 710 752 909 1369 969 754 991 458 945 1212 1154 1159 1192 1501 1494 1634 1508 1541 1562 1738 1677
343 691 1079 754 1162 1305 1153 1612 1798 818 782 1004 1128 1853 2378 1840 1476 1495 1156 618 1049 798 671 434 584 422 687 1147 554 756 665 905 1027 1078 1300 1450 1424 1386 1591 1522 1555 1589 1716
352 525 872 968 1252 1243 1427 1013 1564 1503 887 1052 1266 1284 748 1497 1546 1628 1487 1017 682 630 425 301 818 789 870 508 288 500 695 924 773 1137 1119 1570 1500 1591 2069 1906 1764 1827 1902
537 385 617 947 1122 1124 1302 1555 1424 1185 1159 473 913 307 145 823 1310 1046 1263 1142 543 716 410 508 843 708 495 657 915 843 903 1148 1542 1816 1217 1625 1658 1739 2217 2306 2396 2047 1956
642 547 741 803 952 1090 1279 1489 1370 1112 1029 716 931 841 160 173 1063 1003 1549 1199 839 1098 942 602 744 730 491 249 1066 1109 878 899 805 1281 1573 1199 1693 1973 2168 2332 2207 2311 2115
566 803 1007 919 744 867 942 1279 1123 1099 768 842 735 891 632 1172 1337 1544 1275 1090 1008 1122 840 752 712 553 447 377 260 251 326 778 1158 595 798 1217 1286 953 1950 2518 2503 2469 2263
678 896 1074 1211 1095 1030 880 740 1015 562 576 553 808 769 939 1308 1487 1392 1300 1302 1329 1143 689 687 896 643 446 409 504 775 810 770 1031 837 1379 1333 1137 1080 1157 1754 2244 2498 2254
746 942 1145 1211 1242 1172 915 828 842 618 627 431 772 764 1155 1526 1681 1517 1393 1423 772 621 585 856 1178 667 393 399 114 618 843 974 859 791 885 964 1506 1382 1290 1531 1511 1482 2186
812 924 1172 1219 955 1022 970 719 770 566 541 265 439 814 1161 1635 1874 1910 1313 1314 1065 1016 1142 861 536 317 316 380 752 1009 863 1027 1511 1848 1654 1326 1435 1597 1538 1567 1454 1336 1555
767 982 1132 1252 1125 958 818 731 863 895 284 345 652 794 883 1369 1776 1856 1704 1312 1261 880 799 678 302 142 164 339 604 1097 713 896 1293 1646 1375 921 804 1371 1602 1456 1276 1395 1438
850 1141 1156 1253 1230 1144 995 823 885 92 393 445 438 562 634 901 1499 1866 2057 1872 1807 1301 626 633 578 366 557 475 320 1098 1028 848 1045 1032 1638 1576 1617 1197 1326 1680 1998 1778 1487
887 912 727 1285 1274 1204 1127 793 862 1285 689 608 638 472 444 774 932 1484 1782 1892 2180 1652 1403 893 820 786 903 521 121 201 278 717 1172 798 1147 1203 1263 1147 770 1357 1391 1955 1827
753 826 913 803 1374 1357 1168 1379 1005 1386 1729 1382 46 389 1143 732 1004 1304 1513 1754 1806 2151 2139 1680 1386 1342 1008 969 709 1120 1199 1462 1256 1349 871 975 976 1313 1156 1117 978 1302 1653
852 926 863 1059 1406 1426 1269 1202 1239 1196 1040 801 606 116 223 364 833 1272 1302 1542 1659 1934 2342 2094 2241 2355 2233 1741 1858 1884 1826 1501 1312 1239 1120 1013 903 1050 1031 1129 977 1011 1057

GFSSE_con_sbcape_207.txt.gz
CAPE
1024 1159 1885 1680 1633 2076 1560 2193 1794 1505 1454 1473 1646 1615 1391 1626 1877 1488 1488 1340 1404 1584 1696 2015 2309 2326 2296 1870 2001 2646 2844 2748 2718 2542 2852 2545 2521 2163 2286 2524 3188 1770 2608
872 1135 2429 2224 1907 2199 2346 2559 1974 1986 1509 1473 1681 1660 1618 1544 1783 1322 1377 1491 1784 1786 1817 1672 1914 2088 2102 2092 2226 2814 3115 2932 2805 3196 2567 2413 2250 2091 2249 2160 3235 2775 3022
642 1016 1801 2466 2708 2065 2020 2761 2367 1841 1674 1561 1619 1600 1600 1511 1638 1389 1319 1415 1950 1800 1712 1634 1711 1864 1803 1850 1867 2369 2325 2561 2723 2909 2953 1954 1989 2083 2018 2871 3499 3731 3598
514 611 918 2715 2583 2139 1721 1817 1817 1799 1820 1728 1523 1563 1506 1624 1538 1314 1249 1487 1692 1930 1804 1772 1751 1601 1651 1847 2049 2339 2027 2507 2679 2662 2660 1756 1608 2020 2073 2415 2885 2890 3565
619 666 1030 1052 2600 2083 1802 1693 1733 1752 1814 1934 1808 1432 1368 1312 1333 1435 1459 1655 1826 1902 1904 1717 1639 1649 1650 1803 1818 2153 2182 2029 2336 2174 2306 2432 1465 2052 2108 2193 2206 2787 3217
665 345 230 445 1593 1935 1914 1729 1567 1451 1467 1532 1409 1356 1422 1383 1452 1511 1717 1776 1750 1781 1520 1481 1486 1503 1610 1728 1940 1918 2025 2096 1999 2429 2313 1755 1679 2043 1908 1916 2347 3022 2859
365 310 327 688 1535 2049 1431 1509 1441 1571 1465 1354 1517 1506 1515 1557 1574 1605 1724 1554 1453 1146 1302 1365 1349 1502 1683 1624 1720 1685 1710 1812 1920 1839 1738 1790 1863 2692 2362 2294 2687 2839 2441
386 581 717 1014 1189 1359 971 568 309 541 392 1012 695 907 1255 1457 1701 1597 1552 1291 1276 1206 1196 1254 1331 1352 1218 1596 1723 1752 1732 1376 1292 1259 1626 2214 2576 2653 2692 2543 2703 2425 2055
407 731 661 321 878 1203 161 202 258 396 139 261 468 1024 984 1472 1680 1696 1157 912 771 677 930 1112 1427 1526 1493 1427 1582 1814 2237 1868 1589 850 917 2367 2981 2617 2535 2588 2182 1636 1649
540 743 467 582 412 707 353 235 194 365 412 231 81 982 1140 1516 1501 1186 990 773 1129 989 931 1135 1468 1617 1660 1568 1401 1791 2115 2427 1726 423 504 2040 2896 2536 2565 2548 2304 2218 2249
850 588 384 838 968 1074 970 642 520 406 509 499 795 1224 958 1216 995 1299 1218 1087 1266 1017 1361 1273 1372 1686 1576 1568 1626 1915 2136 1589 1450 418 965 2791 2942 2381 2373 2283 2216 2083 2148
1158 1055 1452 1696 1192 723 636 1206 1097 988 837 358 424 793 1663 2046 1758 895 1343 1230 1139 1475 1077 965 1111 1664 1574 1318 1147 1786 1735 1633 419 206 1261 2595 2131 1978 2408 2303 2054 1668 1490
1063 934 1523 1657 1052 604 879 1129 1172 226 312 1071 945 631 1354 1064 750 739 1115 745 1719 1807 1284 1433 1238 1529 1248 688 1293 1140 932 528 805 597 1279 2391 1825 2290 1986 2181 1911 1706 1705
993 1077 994 751 1412 567 961 663 591 324 649 900 576 1150 1917 1221 559 1241 1282 377 1700 1851 1682 1384 1155 1530 1303 1225 1381 1488 1046 931 509 906 1414 2278 1668 1536 2221 2033 1751 1714 1707
638 880 538 1125 1623 1999 1700 1610 1002 626 320 714 553 1071 1259 1081 548 1036 1488 1216 2303 795 956 954 1188 1341 1557 1444 1152 1393 1029 709 860 1335 2022 1410 1452 1549 1645 1756 1744 1665 1724
736 460 576 1286 1196 1134 983 1517 1840 1407 1423 774 1272 1010 1736 817 1102 1649 1324 1195 1073 964 1591 1979 2517 1510 1692 1301 1244 1470 1554 1418 1349 863 2021 1696 1426 1584 1804 2026 2061 2093 2124
468 457 763 936 1035 1200 1208 1735 1739 1134 1833 1275 986 930 1069 1309 1607 2283 1099 1673 1079 1788 1446 1289 1630 1467 1133 1116 1505 1661 1681 1560 1853 1584 1133 1621 1126 1513 1835 2330 2501 2539 2520
499 1139 884 907 978 1090 1306 2280 1415 1802 989 2051 1283 1072 1269 1280 1434 1782 1980 2035 1557 1789 1470 1057 1745 954 989 989 1418 1536 1545 1390 1685 1915 1675 1449 1312 959 1770 2500 2417 2255 2286
1063 1524 1099 1324 1596 1991 1793 1588 1732 1988 1663 1363 856 1240 1158 1305 1433 2311 2198 2421 2179 1659 1295 1082 1371 1351 897 1013 1051 1180 1425 1815 1881 1524 1644 1553 1409 1437 1918 2458 3008 2773 2368
1448 1615 1403 1953 2499 2170 2226 2256 1118 1767 1560 1245 1015 618 1664 1290 1738 1773 2635 2639 2501 1916 1508 1417 1839 1457 1096 1077 726 792 1546 1398 1452 1568 1902 1791 1790 1439 1164 2338 2170 1827 2879
1138 1852 2365 2359 2127 2902 2673 1944 1136 1316 1046 1402 761 1196 1945 1616 2385 2837 1953 2571 2425 1989 2636 1880 1819 1381 966 974 1117 1202 1115 1200 1442 1318 1206 1964 1812 1772 1883 1621 1874 2230 1885
1255 1398 1963 2400 2537 2713 1958 2218 2108 1819 1054 1236 976 1214 1325 1409 2565 1999 2355 2472 2493 2098 2213 1863 1380 813 763 685 1575 1846 1247 1485 1507 1250 1788 1067 1497 2198 2054 2077 2071 1965 2105
1393 1550 1989 2902 2989 2753 2890 2317 2650 2126 1864 1697 1054 913 1186 1496 1564 2363 2164 2554 2634 2463 2102 2215 1731 1410 1624 846 1516 1629 569 1 244 1080 1197 1805 1730 2244 1625 1906 2085 2204 2309
1398 1651 2037 2710 3513 2965 3004 2724 2206 2370 1303 1224 1281 632 1052 1501 1691 1812 2255 2494 2539 2826 2333 2230 1727 1880 2171 1401 677 759 1857 1660 1123 595 575 528 1295 915 1409 2022 2157 2369 2459
1485 1606 1933 3086 3861 4000 3661 3354 2144 2288 2736 2225 650 2310 2389 2359 1400 1568 2020 2289 2376 2242 3528 3073 2299 2637 1577 2519 817 851 1406 646 795 515 557 878 1324 1060 800 851 2007 1114 1446
1587 1702 1865 3486 3816 3910 3500 3066 3334 2486 2370 1586 2394 1864 1297 1322 1282 1787 1807 2430 2412 2084 2649 2577 3046 2776 3340 2287 2008 1154 630 794 899 509 630 868 946 666 706 503 826 1076 1181

GFSSE_con_sbcape_210.txt.gz
CAPE
1006 1147 2217 2317 2549 2617 2016 1765 1855 2099 2085 2331 2232 2231 2500 2178 2255 2206 2058 1636 1600 1728 1952 2110 2130 2087 1841 1837 2510 2519 2561 2978 3274 2974 2882 2328 2098 2299 2832 2612 2592 1924 2558
908 1107 2388 2215 2530 2741 2484 2477 2129 2264 2219 2380 2197 2102 2072 1755 1717 1657 1611 1681 1672 1691 1679 1911 2269 2107 2045 2006 2541 2866 2803 3172 3030 2494 2310 2432 1983 2132 2211 2180 3126 2491 2778
907 1116 1422 2170 2471 2731 2738 2573 2088 1851 1762 2136 2191 1992 1448 1486 1428 1279 1252 1816 1813 1666 1548 1624 1778 1809 1888 1883 2286 2606 2694 2811 3303 2675 2620 1647 1576 2190 2955 3043 3060 3158 3290
790 1108 1421 2194 2407 2329 2843 2780 2027 1904 1503 2002 2007 1581 1447 1470 1376 1215 1172 1573 1592 1725 1666 1646 1623 1686 1610 1884 1964 2387 2049 2678 2757 2826 2870 1640 813 2098 2664 3139 3393 3421 3288
416 1313 1896 2628 1984 2138 2593 2440 1946 1628 1671 1821 1671 1502 1538 1305 1239 1220 1178 1511 1621 1760 1521 1474 1543 1561 1764 1730 2033 2270 2010 1943 2581 2514 745 564 820 1851 2237 2565 2598 3084 3269
533 608 2047 2795 1908 2000 1798 1849 1567 1011 1529 1738 1579 1371 1292 1262 1366 1334 1430 1599 1927 1751 1518 1498 1464 1486 1512 1610 1795 2053 2078 2084 2030 1485 265 0 991 2051 1947 2063 2770 2872 2852
50 56 346 2493 2615 2430 2266 2151 1603 1497 1456 1287 1242 1375 1408 1371 1416 1587 1504 1574 1567 1290 1264 1149 1253 1514 1507 1746 1644 1521 1642 1636 1628 1741 766 665 1196 2518 1832 2108 2397 2728 2564
69 126 419 2141 1921 1638 1407 1142 935 914 956 1111 905 908 1280 1392 1551 1482 1636 1339 1291 1189 1108 1264 1340 1435 1673 1614 1669 1634 1536 1403 1731 996 607 1311 1826 2663 2533 2562 2507 2469 2155
270 249 521 761 1317 664 316 281 34 265 102 919 955 798 949 1464 1710 1525 1331 1071 881 708 986 1105 1271 1356 1345 1573 1721 1724 1964 1613 1572 1365 1439 1752 2318 2831 2762 2612 2487 2082 1579
811 185 426 753 806 185 128 311 121 361 109 219 49 854 1044 1435 1714 1437 1509 1167 927 907 1039 1137 1437 1521 1466 1467 2012 1890 2071 2028 1580 1205 1800 1902 3066 2831 2533 2399 1944 1816 2411
660 370 382 568 596 480 140 258 144 122 314 185 204 703 950 1449 1348 1030 1151 1414 1340 1082 942 1122 1599 1570 1471 1430 1963 2027 2020 1720 1334 1559 1467 2649 3097 2798 2494 2510 2325 2226 2005
835 618 701 460 1037 861 342 579 637 670 426 601 738 1208 1326 1135 872 903 1179 2010 1534 1309 1228 1174 1409 1686 1558 1102 1229 1555 1659 1406 1295 784 1396 2966 3047 2648 2458 2283 2268 2285 2221
845 920 1003 933 1394 771 514 1202 497 29 483 994 1310 1780 1696 322 558 860 1275 710 1023 1612 1154 934 957 188 800 884 451 0 0 590 1246 828 1718 2720 2610 2296 2355 2274 2036 1651 1450
951 1033 1131 1475 1307 931 882 1184 720 56 101 744 881 2059 2717 1889 373 439 177 127 359 1261 1392 1330 459 2 23 547 746 373 469 732 369 548 1701 2573 2834 2747 2064 2271 1957 1643 1708
913 1023 1216 1418 1704 1499 1125 1162 670 335 652 1272 794 901 1451 1714 1435 437 415 244 157 765 1760 955 1267 1391 1833 1459 1536 1464 1042 984 1103 1123 1096 2407 2401 2271 2610 2125 1743 1627 1556
759 1061 862 1676 1543 1119 1144 1587 1153 1238 1172 285 1315 618 2041 1342 1700 1396 1960 942 1432 2006 2060 2925 2479 2314 1820 1775 2174 1848 2235 1666 1207 1810 1064 1365 2222 2354 2368 2325 1927 1794 1757
1038 918 1402 1422 1360 2287 2122 2008 1757 785 1049 187 528 2044 2273 2355 1790 517 1406 478 2263 2731 2442 2558 2028 2117 2248 1407 1736 2030 1949 1488 1855 1616 1583 932 1458 2270 2325 2652 2706 2834 2706
1022 1345 1543 971 988 1566 1679 2639 2063 1280 1041 1419 1265 2110 1746 2093 1038 1086 1031 740 1556 2896 2263 2211 1313 1973 1301 994 1847 2402 2500 2174 2464 2393 2040 878 509 459 2118 2730 3007 2966 2694
1197 1550 1767 1191 1038 1663 2597 2037 1803 1426 1090 2390 1609 1558 2042 1895 1940 2471 403 68 319 2686 1543 1687 1822 801 2203 1132 1773 1875 1727 985 2244 1422 1995 1372 670 646 1016 2287 2786 2798 2331
1716 1620 2189 2316 1486 2029 2211 2658 1937 2308 1943 1985 1006 1685 1594 2033 1828 3154 1607 234 737 2748 2425 1543 2045 2725 2418 1504 1227 820 901 1173 1902 1359 1754 1503 1968 1488 1233 1335 2265 2424 2818
1537 1767 2007 2537 2473 2176 1612 1738 1248 1484 1529 1652 1034 1877 2451 2286 2635 2879 1314 1234 2654 2338 2771 2700 2487 2464 2086 1763 1711 462 297 599 89 1339 1265 783 1591 1519 1821 1453 1684 1650 1868
1798 1974 2639 2655 2349 2416 2066 1905 2292 1000 1450 1526 1048 2054 2499 2041 3027 1477 11 154 2409 2824 2724 2751 2555 2481 1914 1905 2 64 1 4 0 3 186 684 1034 1817 1554 2334 2317 1785 1419
1765 2381 2682 3197 3004 2634 2363 2168 2285 2081 1379 1832 1340 1376 1670 2290 2757 2519 1062 739 2368 2581 1752 2419 2617 2438 2638 2385 1038 0 0 0 0 128 479 329 388 520 1407 2257 2503 2923 2179
1751 2079 3132 3300 3409 2928 2437 2244 2292 1823 1428 1482 1119 1558 2004 2076 2401 2397 2591 2549 2598 1718 796 300 2728 2750 2777 2088 1846 199 0 0 0 226 324 344 744 1043 928 1200 1421 2738 2630
1644 1929 2611 3225 3790 3226 2988 3036 2255 2192 1675 1882 1522 1110 1279 2166 2342 2323 2626 2640 2472 2250 1661 2207 2701 3261 3445 2310 2541 1412 211 0 1 99 0 136 951 71 1718 1205 1657 890 2390
1863 2102 2351 3361 3647 3666 3568 3109 3182 2282 2257 1399 2314 2155 1206 1630 1802 2356 2367 3536 3690 3081 2532 1817 2462 2959 3834 3888 3376 3067 1215 1335 456 935 416 518 980 1250 189 1351 1211 1993 2114

GFSSE_con_sbcape_216.txt.gz
CAPE
842 1193 2334 1848 1479 1454 1368 1660 1968 2294 2631 2576 2460 2516 2456 2433 2465 2275 2173 1831 1845 1799 1790 1971 1892 1992 2397 2584 2550 3183 3050 2539 2109 2193 2063 2034 2070 2114 2119 2249 2339 2259 2690
987 1525 2528 2163 1482 1452 1380 1592 1845 1876 2068 2151 2376 2204 1860 1887 1743 1788 1780 1854 1945 2062 2110 2112 2164 1935 2464 2551 2618 2684 3200 3038 2493 2070 2425 2544 2541 2182 1778 1887 2062 1856 1988
936 1506 1996 2204 1852 1496 1570 1490 1581 1456 1494 1872 1830 1681 1468 1567 1726 1920 1899 1882 1830 1786 2022 2424 2228 2156 2309 2673 2901 2764 3015 3138 2967 2589 2508 1848 1899 2324 1920 2072 2294 2379 2373
834 1243 1675 2226 2227 1789 1632 1848 1877 1376 1285 1324 1441 1402 1431 1401 1326 1663 1983 1788 1716 1642 1658 1899 1953 2053 2135 2529 2550 2892 2599 2103 2201 2018 1563 1846 2114 2650 2287 2676 2966 3154 3255
527 967 1554 2482 2325 1688 1645 1736 2281 1903 1592 1480 1423 1264 1376 1349 1216 1301 1650 1804 1783 1817 1769 1661 1773 1702 2039 2070 2602 2154 2044 1587 1933 891 744 1156 2256 2876 3120 3422 3305 3147 3084
597 985 2119 2672 1683 1786 1990 1643 1585 1530 1519 1439 1390 1456 1275 1302 1263 1167 1526 1738 1708 1555 1454 1520 1587 1816 1853 1845 1784 1874 1885 1817 1340 234 93 287 905 2842 3035 3231 2957 3151 2996
710 922 1405 2651 2662 2401 1681 2190 1770 1476 1509 1479 1535 1299 1250 1454 1264 1316 1604 1952 1774 1589 1474 1442 1501 1436 1654 1726 1752 1589 1737 1525 310 277 2 0 327 2839 2085 2435 3119 2891 2912
816 946 1398 2274 2619 2460 1689 1836 1876 1762 1815 1596 1391 1324 1355 1325 1415 1429 1745 1753 1392 1362 1274 1077 1335 1501 1603 1575 1627 1516 1431 1624 815 172 1 0 88 1356 1898 2819 2931 2746 2460
1158 1217 1037 978 1102 1436 2127 1491 1722 1640 1485 1383 1313 1338 1406 1514 1442 1668 1654 1515 1338 1267 1227 1310 1369 1619 1706 1726 1751 1700 1382 947 0 0 0 0 186 1104 2129 2700 2782 2675 2185
1001 1133 926 892 916 1045 1351 1747 1448 1165 1200 1008 983 1009 1299 1626 1597 1634 1942 1604 1298 1011 1197 1191 1318 1376 1465 1672 1666 1818 1443 1551 69 191 140 133 444 1227 2632 2830 2752 2417 1912
858 929 798 443 117 49 73 289 266 751 797 752 891 1134 1298 823 1249 1212 1310 1289 1096 1059 1328 1296 1448 1509 1665 1726 1774 1801 1065 1136 760 742 443 970 1161 1504 2686 2870 2705 2237 2103
325 573 656 116 0 17 99 72 99 135 76 53 47 100 254 454 475 1130 1116 1131 1060 1095 1072 1141 1642 1756 1664 1164 936 1447 1229 1169 1070 1080 730 1618 1688 2174 2811 2827 2413 2183 2604
248 590 459 145 0 0 30 67 19 66 56 56 49 55 181 97 150 106 63 37 0 238 562 934 978 932 1121 583 12 163 585 525 735 841 1182 2301 2586 2702 2870 2650 2623 2692 2334
184 331 355 339 92 0 15 153 50 0 20 5 23 60 32 101 140 140 74 7 0 0 25 541 510 326 224 0 0 55 0 0 0 282 745 2468 2572 3140 2865 2779 2787 2600 2517
271 393 224 317 494 55 157 200 46 0 0 24 47 60 34 115 18 8 15 1 0 0 13 470 583 192 48 48 0 14 13 46 76 271 1191 2465 2845 3648 3240 2671 2666 2561 2073
450 517 372 249 580 174 269 290 64 8 0 0 94 19 165 163 101 90 2 0 15 0 0 211 541 2 0 103 20 0 303 559 555 324 1168 2068 3203 3382 3178 2818 2353 2031 1773
697 675 593 360 578 296 228 449 188 25 6 82 65 159 32 219 85 44 0 3 95 222 216 174 514 324 117 238 249 134 312 539 589 294 636 1305 2243 3473 3283 3269 2907 2512 1868
838 814 692 773 732 578 342 314 528 164 86 64 17 18 160 218 143 160 12 33 141 211 296 433 438 491 719 615 282 73 39 218 479 713 489 377 629 1718 2915 3345 2935 2697 1886
833 926 1019 1050 780 795 523 375 421 255 202 124 24 87 378 268 128 282 285 214 170 0 18 945 745 413 468 583 471 329 3 6 171 517 476 478 318 587 788 2125 2816 2822 2234
735 896 1123 1028 580 620 570 455 522 298 398 344 331 144 465 253 436 184 125 122 55 80 220 885 705 494 469 275 62 355 11 48 22 53 154 467 336 335 300 696 1588 2310 3050
635 678 896 871 716 645 806 820 721 741 555 436 487 578 581 93 299 164 21 0 49 216 299 632 826 177 77 30 0 0 0 0 13 123 17 330 364 297 563 320 369 1503 1725
725 697 758 676 672 922 952 720 600 578 659 539 254 291 550 236 560 90 14 0 171 279 449 851 657 583 149 0 0 0 0 0 0 36 34 618 187 625 949 1032 529 804 1237
767 783 730 665 877 937 847 731 601 535 498 517 461 476 776 507 794 391 107 54 121 357 651 486 717 598 520 1 0 0 0 0 0 0 5 58 536 475 513 723 1039 805 850
780 894 784 667 884 911 624 770 747 658 635 620 467 408 630 742 711 27 63 13 89 301 40 77 210 775 679 575 46 5 0 0 0 0 0 0 41 407 375 497 1074 1091 842
645 1129 967 734 808 914 873 660 638 661 474 533 462 446 322 400 816 37 0 0 80 143 0 10 38 901 736 453 8 3 0 0 6 1 0 0 14 18 9 214 698 169 349
559 818 1279 949 876 952 870 873 642 569 467 563 487 369 503 518 710 722 295 6 12 273 13 0 166 1265 1215 833 271 44 0 0 27 39 33 51 2 163 225 371 547 23 281

GFSSE_con_sbcape_219.txt.gz
CAPE
558 1045 2182 1633 1611 1832 2122 2602 2716 2231 2077 2429 2757 2697 2747 2357 2240 2178 2021 1405 1333 1616 1903 1750 1985 2317 2548 2759 3265 2521 2215 2272 2267 2397 2450 2460 2263 2056 2502 2622 2579 2325 2498
624 1288 2382 2196 1562 1646 1841 2244 2554 2355 2172 2332 2638 2510 2324 1821 1743 1727 1679 1718 1824 1882 1904 1992 1822 2263 2437 2559 2903 3250 2557 2061 1974 1894 1879 1815 1967 2016 2129 2133 2202 2179 2475
759 1413 1786 2235 1835 1480 2192 2002 2089 2061 1875 2297 2292 2307 1885 1742 1775 1777 1800 1925 2084 2139 2210 2128 2036 2026 2464 2838 2629 2872 3057 2165 2220 2029 2003 1833 1719 1683 1818 1931 2033 2058 2033
969 1424 1242 2172 2107 1387 1729 1875 2297 1596 1632 1760 1715 2027 1621 1813 1980 2002 2061 1891 1822 1945 2212 2328 2134 2107 2322 2739 2878 2813 2491 2301 2528 2602 1807 1918 1908 2088 2061 2316 2424 2535 2744
1040 1172 1115 1763 1797 1335 1513 1622 1993 1894 1428 1503 1434 1594 1509 1432 1520 1964 1836 1834 1749 1768 1762 1895 1985 1974 2104 2371 2650 2259 1785 1887 2168 1810 1046 1441 2262 2320 2576 3054 3231 3269 3190
703 1041 1576 1634 1289 1268 1424 1803 1598 1540 1529 1480 1301 1438 1432 1312 1388 1471 1715 1935 1724 1588 1799 1663 1800 1832 1974 1893 1702 1818 1661 1217 1894 629 545 956 1683 2894 3054 3223 3035 3006 3149
702 993 1291 2111 1664 1518 1530 1613 1632 1626 1536 1429 1499 1299 1331 1460 1203 1429 1594 1637 1717 1903 1708 1556 1621 1782 1851 1819 1767 1774 2206 2085 524 246 54 249 1238 2831 2818 3036 3058 3004 3292
725 1022 1565 1600 1621 1650 1394 1383 1426 1430 1503 1550 1478 1292 1422 1371 1336 1373 1702 1721 1459 1294 1151 1349 1508 1568 1647 1714 1697 1664 1766 1537 704 271 2 0 749 2153 2155 2580 3119 3065 2820
770 1067 1376 1402 1381 1626 2096 2005 1797 1976 1796 1582 1482 1474 1388 1383 1460 1478 1720 1536 1271 1335 1314 1237 1523 1741 1724 1796 1738 1529 1427 1275 6 10 0 0 714 2069 1971 2973 3130 2861 2494
937 1008 709 978 1075 1252 1273 1854 1944 1898 1646 1691 1555 1480 1390 1621 1491 1759 1854 1788 1704 1470 1425 1387 1454 1623 1732 1772 1773 1693 1664 1440 49 0 3 0 230 1665 2315 2629 2921 2909 2416
974 878 817 662 590 723 809 1420 1645 1560 1465 1357 1188 1187 1343 999 1248 1468 1447 1521 1336 1184 1285 1299 1410 1362 1610 1687 1779 1725 1010 1401 1122 293 579 258 632 1203 2181 2820 2951 2745 2379
860 868 710 209 300 280 204 245 170 373 211 86 167 424 543 657 642 1293 1316 1367 1271 1203 1157 1244 1596 1686 1620 1052 725 1404 868 893 981 1036 684 939 1604 1334 1521 2830 2900 2792 2147
784 944 699 213 40 52 155 85 110 112 31 15 23 30 248 237 329 645 289 189 13 363 553 824 895 809 1164 806 336 135 512 791 531 1020 839 2059 2021 1713 1949 3143 2868 2500 1777
484 834 643 181 0 0 42 72 40 38 14 9 6 81 118 102 145 186 161 22 0 0 0 393 441 418 409 131 0 9 58 23 0 51 134 1571 2335 2329 2408 3041 2760 2335 2359
344 691 574 241 2 0 3 67 17 0 3 0 0 53 35 74 54 22 12 1 0 0 0 100 408 398 144 66 0 0 0 19 0 0 128 1316 2629 3048 2677 2643 2443 2315 2247
228 415 487 370 84 0 0 55 15 0 0 0 14 62 18 66 1 50 72 1 3 0 0 25 150 349 17 0 3 0 45 260 405 528 580 1196 2648 3065 3154 2669 2710 2021 2183
280 392 314 384 548 75 126 82 16 0 0 0 17 33 72 103 102 130 32 2 71 194 227 148 130 267 12 154 266 261 330 441 635 525 630 1071 1602 3011 2945 3043 3098 2925 2204
404 486 383 509 676 257 179 235 149 14 0 2 16 49 50 167 127 70 0 5 31 159 136 403 328 399 499 534 128 54 112 275 686 303 278 562 761 1757 2454 3110 3037 2924 2252
574 579 550 394 537 403 184 184 370 185 33 0 46 32 55 269 193 33 42 79 183 107 0 320 378 309 331 178 145 20 41 92 357 890 638 295 309 723 982 1724 2970 2941 2205
719 664 601 583 577 560 326 249 258 273 121 53 77 71 161 295 160 186 184 216 155 54 79 481 659 341 217 468 240 300 19 41 97 95 266 482 383 232 355 544 1012 2041 2757
740 800 807 860 599 543 469 475 372 426 304 108 220 263 157 220 332 189 114 74 40 48 217 639 208 290 190 41 3 0 0 0 10 97 106 76 334 207 96 115 252 637 1500
666 757 895 920 421 549 581 558 544 446 504 409 294 392 324 204 402 182 52 0 10 264 324 639 379 228 34 0 0 0 0 0 0 0 18 98 393 315 561 546 281 185 766
602 575 745 737 559 597 594 472 412 435 387 414 269 242 319 306 366 331 53 0 24 214 449 755 511 332 66 0 0 0 0 0 0 0 0 0 54 267 465 785 974 661 520
626 637 641 565 573 714 574 642 636 622 607 508 419 246 373 531 518 407 116 0 26 189 424 265 471 477 300 2 0 3 0 0 0 0 0 0 0 110 260 285 499 774 656
736 721 606 510 654 756 648 723 615 433 384 357 301 349 379 572 579 403 118 65 51 134 134 9 48 430 508 158 0 0 0 0 0 0 0 0 0 0 0 35 74 437 687
766 841 778 485 631 724 693 546 641 480 366 394 370 354 277 283 403 286 60 0 0 56 94 0 15 609 908 321 7 0 0 0 0 1 3 2 0 0 25 17 29 146 150

GFSSE_con_sbcape_222.txt.gz
CAPE
524 749 1733 1605 1706 2119 2758 2915 2772 2848 2930 3296 2820 2792 2393 2067 1899 1977 1793 1576 1749 1734 1652 1995 2256 2441 2970 2967 2206 2332 2458 2403 2229 2603 2480 2094 2244 2673 2996 2506 2489 2038 2102
580 1096 1771 1877 1578 1753 2020 2526 2475 2567 2546 2431 2450 2169 2153 1789 1742 1621 1503 1477 1546 1702 1789 1824 2235 2355 2409 2984 2725 2140 2146 2109 1999 1911 2028 1911 1931 2048 2004 2382 2418 2420 3032
958 1333 1379 1985 2317 1872 2336 2087 2189 2507 2058 1995 2349 2371 2025 1527 1560 1580 1626 1708 1735 1804 1814 1929 1984 2338 2523 2391 3105 2608 2052 2112 2132 1809 1962 1796 1706 1915 1953 1991 2032 2121 2302
1025 1186 1189 2005 2270 1852 2056 2211 2163 1866 1662 1928 2044 2021 1826 1757 1754 1759 1809 1845 1898 2032 2449 2169 2062 2240 2507 2880 2673 2946 2249 2546 2670 2442 2057 1883 1374 1767 1930 2088 2196 2240 2289
1037 922 1182 2162 2224 1738 1773 2252 1872 2125 1669 1722 1789 1736 1848 1976 2009 1975 1789 1741 1690 1767 1977 2076 2162 2217 2385 2731 2831 2593 2509 2731 2784 1964 1437 1848 2100 1877 2228 2501 2763 3027 3020
925 769 1732 1852 1356 1647 1825 1969 1556 1660 1669 1627 1659 1527 1485 1520 1704 1827 1975 1748 1963 1770 1738 1817 1888 2060 1978 2147 2288 2238 1803 555 2280 1122 1259 2129 2368 2239 2800 3040 3057 2980 2972
791 910 1221 2212 2144 2059 2077 2020 1710 1491 1456 1257 1417 1453 1446 1445 1354 1675 1849 1643 1526 1512 1584 1680 1812 1849 1688 1750 1524 1901 1982 1338 638 711 517 1435 2075 3112 3030 3085 2860 2881 3077
911 1061 1234 1657 1968 2046 1875 1861 1783 1769 1664 1567 1368 1371 1700 1379 1319 1560 1693 1664 1768 1551 1573 1540 1537 1647 1620 1768 1575 1911 1850 1628 871 418 123 188 1472 2626 2580 2765 3263 2938 3071
949 1251 937 927 1204 1620 2243 1656 1760 1671 1747 1821 1474 1550 1413 1420 1457 1492 1862 1717 1442 1488 1248 1175 1532 1509 1753 1715 1572 1592 1097 1498 424 331 123 0 651 2476 2280 2376 3220 2947 2724
990 1223 1114 1132 1023 945 1745 1564 1650 2237 1924 1705 1694 1681 1434 1472 1421 1579 1935 1509 1351 1473 1391 1402 1510 1668 1638 1681 1765 1459 1344 1321 11 0 101 3 143 2094 2218 2281 3022 3039 2749
1009 862 872 1128 1009 1236 1222 1570 1743 1655 1898 1948 1610 1474 1388 976 1111 1650 1591 1629 1592 1232 1327 1246 1368 1524 1546 1589 1754 1502 1241 1773 1142 289 412 74 240 1264 2019 2416 2755 2765 2740
1029 924 759 810 822 896 941 622 328 787 387 299 416 732 682 727 816 1362 1533 1462 1442 1301 1229 1273 1514 1436 1556 1182 970 1302 888 1022 1345 1188 1024 1136 849 1182 1416 2069 2597 2857 2837
814 986 605 509 554 612 317 148 129 117 20 19 42 261 303 383 508 678 521 337 147 540 732 999 909 990 1265 1082 619 219 399 1035 1009 1119 1218 1584 1566 2003 1604 1670 2785 2971 2883
834 945 680 410 298 200 197 133 103 99 11 0 8 36 187 159 191 300 224 51 15 0 9 422 491 455 588 393 13 0 98 199 183 290 569 900 1832 2258 2118 1995 2841 2950 2579
752 898 795 312 119 13 99 95 108 77 50 0 0 12 74 132 189 238 125 15 1 0 0 41 389 437 251 130 0 0 0 14 0 0 0 287 1343 2368 2639 2487 3160 2988 2601
487 802 748 433 33 0 11 111 50 5 18 0 0 15 84 102 74 32 69 20 6 0 0 15 116 355 211 77 35 1 41 284 541 637 752 937 1548 2664 2891 2524 3010 2777 2549
319 643 625 478 133 0 0 45 51 3 0 0 11 38 101 63 35 46 92 19 35 28 11 69 126 284 128 41 162 291 314 385 865 966 918 881 1742 2560 2523 2527 2995 3295 2856
207 355 501 629 406 70 16 69 65 20 0 0 0 95 65 128 124 116 55 1 0 174 236 439 445 511 601 619 534 467 393 395 827 713 634 1054 1442 1843 2478 2959 3321 3285 2567
194 252 297 365 556 315 113 174 131 70 28 22 63 55 93 121 233 115 5 22 82 85 0 422 375 543 568 383 182 100 110 160 406 883 545 405 761 1165 1737 2244 3074 3140 2117
242 309 325 245 373 331 186 106 211 187 79 57 58 117 91 156 380 239 107 180 200 115 57 295 707 398 180 477 566 339 206 22 108 287 353 630 613 496 927 1385 2066 2141 2942
409 393 391 319 338 322 300 263 167 315 226 260 192 191 177 172 362 286 251 188 84 167 138 465 592 510 370 171 25 2 14 10 34 94 351 186 504 647 433 604 817 1067 1589
488 511 456 468 554 578 512 412 342 345 409 315 341 422 300 272 388 260 204 167 60 117 231 767 493 329 113 16 26 0 0 0 0 0 89 226 164 693 533 418 411 504 910
533 567 634 587 480 653 514 340 282 293 361 359 373 360 481 462 372 372 141 88 17 95 447 759 617 469 166 12 0 0 0 0 0 0 0 33 136 356 506 805 897 783 618
558 506 612 637 408 491 384 478 566 551 588 477 498 434 455 519 404 396 247 43 10 89 436 593 708 486 54 69 0 0 0 0 0 20 0 0 0 11 439 711 1009 1148 1161
520 403 442 420 441 590 508 578 541 456 410 287 351 370 339 510 573 585 359 150 22 28 344 372 369 658 581 136 61 0 0 0 0 0 0 0 1 51 104 587 800 888 910
500 508 352 309 456 551 602 545 587 489 357 393 388 347 294 281 488 547 395 224 164 106 237 124 39 96 889 427 100 19 0 0 6 71 20 52 1 115 112 113 75 379 504